Vertical_Velocity
-2 -1 0 -1 -3 -4 -3 -2 -1 -1 -1 -3 -4 1 1 -1 -0 -1 -1 -3 -1 -2 -2 0 2 -2 -1 2 -1 4 -1 3 -4 -9 21 -3 3 41 23 2 4 -3 4
-1 1 -1 -3 -3 -1 -0 -1 -1 -1 -2 -4 -5 -4 -5 -4 -4 -4 -1 1 0 2 -1 1 2 3 5 -0 -0 0 1 2 4 -14 10 10 3 7 12 3 6 9 1
1 0 -2 -2 -2 0 -0 -1 -2 -1 -4 -5 -2 -4 -1 -1 2 1 -0 -1 1 6 -0 -4 2 -2 1 4 3 3 3 4 -4 6 -7 4 4 -1 12 -8 14 16 4
-2 -1 -0 -0 0 -1 -0 -1 -4 -4 -3 -2 -2 -1 -2 -3 -2 -3 -6 -1 4 1 -1 -0 -1 -0 3 3 5 4 3 4 8 -13 19 -10 -8 -1 -1 -7 13 9 -1
0 -1 -3 -1 -1 -2 -2 -3 -1 -1 -1 -1 -0 -0 -1 -0 -2 -0 -3 -1 1 0 1 -0 -6 8 8 5 3 3 3 -1 -1 4 1 4 -14 2 -6 -11 -19 -15 14
-3 -2 -1 -2 -2 0 -0 1 -0 -0 -1 -1 -2 -1 -2 -1 -3 -1 -2 -2 -2 -1 -3 3 5 -1 -0 -0 6 4 0 3 6 4 6 5 4 -5 -1 -4 0 -0 -14
-1 -1 -0 -1 1 0 -1 -1 -1 -2 -1 -2 -1 0 -1 -2 -4 -1 -1 0 -6 -4 -1 -1 -1 4 2 5 2 1 0 1 1 1 2 4 4 -1 7 2 1 -2 -1
1 -1 -2 -1 -0 1 -0 -1 -3 -2 -1 -1 -1 -1 -0 -1 -3 -2 -1 -1 0 -6 -6 -0 1 0 -0 1 2 2 1 0 2 3 1 -1 8 -2 1 -1 -2 1 1
-1 -1 -0 -1 -1 -1 -1 -2 -2 -3 -1 -1 -1 -2 -0 -0 -0 0 0 -1 -4 -3 -2 -5 -5 -1 -0 -3 -4 -1 -1 -2 -3 -5 -7 -5 -2 -1 -0 5 -0 -4 -3
-2 -0 0 -1 -1 -2 -1 -2 -1 -2 -3 -2 -1 -3 -1 -1 -1 -1 1 4 5 -3 -4 2 -2 -4 -3 -3 -0 1 1 0 -0 -2 -1 -1 -2 -0 0 3 0 -4 -1
-1 -1 -0 1 -0 -1 -1 -0 -0 -1 -1 -1 -0 -1 -0 -2 -3 -4 -6 -7 -4 0 5 -0 -4 -1 -1 -2 -2 -3 -2 -1 1 1 1 1 -0 -2 -4 -7 -5 -1 -4
-0 -1 -1 -1 -1 -1 -1 0 1 0 2 1 -0 -1 -1 -2 -3 -2 1 1 -1 -4 -5 -0 5 3 0 1 2 3 2 -0 -0 -1 0 1 2 3 0 1 -1 3 -2
-1 2 1 1 -0 -0 -1 -1 0 2 2 -1 -1 -0 -1 3 2 1 -2 -0 1 1 -2 -4 -6 -1 2 -2 -2 1 2 1 1 -0 -1 -0 -1 0 1 1 1 1 1
-1 -0 -2 -1 -0 1 0 0 1 1 2 -0 2 -1 -1 -1 -2 1 1 3 -0 -4 1 4 2 -3 -6 -2 2 -2 -1 3 5 3 1 0 1 1 1 2 3 1 0
-2 -4 -5 -4 -0 -1 2 -1 1 1 2 0 -0 -1 5 -1 -1 0 1 2 -1 2 0 -3 0 2 2 -1 -2 -0 -1 -4 -5 -1 1 2 2 2 1 2 2 3 3
-3 -3 -3 -3 -3 -1 -2 1 2 -0 0 2 -2 2 -1 4 4 4 4 1 0 2 0 4 -1 -1 -2 1 1 2 -0 -0 0 0 1 1 1 -1 -0 -0 -1 -2 -3
-3 -4 -3 -3 -6 -3 3 -4 -5 -1 -2 -4 3 0 -1 -3 -2 -2 -4 -3 0 1 3 0 2 1 1 -1 -0 1 -2 -1 1 1 -1 -4 -4 -3 -5 -7 -6 -4 -4
-0 -2 1 -2 1 1 -1 0 10 0 0 -4 -2 1 1 2 2 -1 -1 -0 -2 -1 -0 1 1 0 3 2 6 2 3 1 3 2 0 -2 -2 -2 -2 -1 1 1 2
-2 -1 3 2 -4 -0 3 2 3 -0 2 3 -1 0 1 3 1 -1 -2 -2 -3 -2 -1 -0 -5 -1 -2 -2 -7 0 -1 -1 -3 -4 0 2 -0 -3 -3 1 2 -0 0
3 -0 -4 -4 5 5 4 1 -1 2 -3 4 4 5 3 -0 -4 -2 1 2 1 -1 -5 -7 2 -0 2 -1 -2 -4 1 0 -0 -0 -2 -2 -1 0 -2 -7 -5 -2 -0
-7 2 -0 -1 -3 1 6 -3 -0 1 2 2 5 3 -1 2 5 6 5 3 2 1 -2 1 -3 1 -2 -2 1 -4 -1 -1 0 -0 -0 -1 -2 -3 -2 1 -3 -3 -2
-4 -3 -3 -3 -1 2 3 -5 -5 4 2 2 -1 -2 5 5 3 3 3 0 1 2 0 1 -1 -0 -0 -1 2 1 -4 2 -2 0 1 -0 -2 -0 0 -0 1 -3 -2
-5 -2 1 -4 -5 3 6 0 -3 3 -4 -6 -2 2 5 1 1 3 3 1 2 -0 -1 -0 -2 -1 -2 -3 -0 1 -2 0 -2 0 -0 -1 -0 3 -2 1 -0 -1 -3
-3 -2 -2 -0 -4 -2 -1 8 1 0 1 0 0 2 1 4 4 1 2 5 0 1 -0 -1 -2 1 -2 -2 -0 -1 -1 -0 1 -0 2 0 -0 -1 1 -4 1 -0 -1
-2 2 1 -0 -2 -1 -3 2 -1 -0 -3 -2 -0 -1 2 3 2 2 2 3 4 4 3 1 2 1 -2 -2 2 0 -0 -1 -1 2 1 1 3 0 1 -3 0 -1 -3
-4 -5 3 3 -1 -1 -0 -0 2 1 1 -2 -1 -1 -1 -0 1 0 0 -0 1 3 5 2 1 2 2 1 -1 -1 0 -1 -2 1 0 1 2 2 3 -2 1 2 1
Height
1517 1517 1517 1516 1515 1514 1512 1509 1506 1502 1497 1494 1490 1487 1483 1479 1475 1471 1466 1462 1458 1455 1454 1453 1453 1453 1454 1456 1457 1457 1458 1458 1461 1461 1455 1459 1458 1453 1461 1466 1471 1475 1478
1515 1515 1515 1514 1513 1512 1509 1507 1504 1500 1497 1493 1489 1485 1481 1476 1471 1467 1464 1462 1458 1454 1452 1450 1449 1449 1450 1451 1452 1453 1454 1454 1456 1459 1456 1452 1458 1454 1462 1466 1470 1471 1474
1514 1513 1513 1513 1512 1510 1508 1505 1502 1498 1495 1491 1486 1482 1479 1475 1472 1467 1464 1461 1457 1453 1450 1447 1446 1446 1447 1448 1448 1448 1450 1450 1452 1453 1455 1454 1454 1458 1462 1466 1468 1468 1471
1511 1511 1511 1511 1510 1508 1505 1502 1499 1496 1492 1487 1483 1480 1476 1472 1470 1466 1463 1459 1456 1452 1448 1445 1444 1444 1443 1443 1444 1445 1446 1447 1448 1450 1448 1454 1457 1460 1464 1468 1471 1467 1470
1510 1510 1509 1508 1507 1504 1502 1499 1496 1493 1489 1485 1482 1478 1474 1471 1467 1464 1461 1458 1455 1451 1447 1444 1443 1442 1440 1441 1442 1443 1444 1444 1446 1447 1450 1451 1452 1459 1460 1464 1468 1469 1472
1509 1508 1507 1505 1503 1500 1498 1496 1493 1491 1487 1484 1481 1477 1473 1469 1467 1463 1460 1457 1454 1451 1448 1445 1443 1443 1442 1442 1443 1442 1443 1443 1445 1446 1447 1449 1449 1451 1449 1459 1461 1463 1464
1507 1506 1505 1502 1500 1497 1495 1493 1491 1488 1486 1483 1479 1476 1472 1469 1466 1463 1460 1456 1454 1453 1450 1447 1446 1445 1444 1444 1444 1444 1444 1444 1445 1445 1445 1446 1445 1444 1449 1451 1453 1458 1461
1506 1505 1503 1500 1497 1494 1492 1490 1488 1485 1483 1480 1477 1474 1471 1469 1466 1463 1460 1457 1455 1453 1452 1450 1448 1447 1445 1445 1444 1444 1443 1444 1444 1444 1445 1445 1444 1446 1451 1452 1455 1458 1456
1505 1503 1500 1496 1492 1490 1487 1485 1483 1481 1479 1477 1474 1472 1470 1467 1465 1462 1459 1456 1455 1454 1453 1451 1450 1448 1447 1446 1446 1445 1444 1444 1444 1444 1445 1446 1446 1447 1448 1448 1448 1449 1452
1502 1498 1494 1490 1486 1483 1482 1479 1478 1476 1474 1472 1470 1468 1467 1465 1463 1461 1459 1457 1454 1453 1452 1451 1450 1448 1448 1447 1446 1445 1444 1443 1443 1443 1443 1443 1443 1444 1444 1444 1444 1446 1450
1498 1493 1489 1485 1481 1479 1477 1474 1472 1470 1468 1467 1465 1463 1462 1460 1459 1457 1455 1454 1453 1451 1450 1449 1447 1447 1446 1445 1444 1443 1442 1441 1441 1440 1440 1440 1440 1440 1440 1441 1442 1442 1443
1495 1489 1485 1482 1479 1477 1474 1471 1468 1466 1465 1463 1461 1460 1458 1456 1455 1453 1452 1450 1449 1447 1446 1445 1445 1444 1443 1442 1440 1439 1438 1437 1437 1437 1437 1437 1437 1437 1437 1437 1437 1438 1438
1493 1488 1484 1481 1478 1475 1472 1468 1465 1462 1460 1458 1457 1456 1455 1453 1451 1449 1448 1447 1445 1444 1442 1441 1440 1439 1439 1438 1438 1437 1435 1434 1434 1434 1434 1433 1433 1433 1432 1432 1432 1432 1431
1493 1489 1484 1480 1476 1472 1469 1465 1461 1457 1455 1453 1452 1450 1449 1448 1447 1446 1444 1442 1441 1441 1440 1438 1436 1435 1434 1434 1434 1434 1434 1433 1432 1431 1431 1431 1431 1430 1429 1429 1428 1427 1427
1490 1486 1481 1476 1472 1468 1464 1461 1457 1454 1450 1447 1446 1445 1445 1444 1443 1442 1440 1439 1437 1436 1435 1435 1434 1433 1431 1431 1431 1431 1430 1430 1430 1430 1429 1427 1427 1426 1425 1425 1424 1424 1423
1487 1483 1478 1473 1468 1463 1458 1456 1452 1449 1445 1441 1440 1441 1441 1440 1438 1437 1436 1435 1435 1434 1433 1431 1430 1430 1429 1427 1426 1426 1426 1426 1426 1427 1427 1427 1425 1424 1423 1423 1422 1421 1419
1483 1477 1472 1467 1462 1457 1452 1448 1446 1442 1439 1436 1434 1433 1433 1433 1433 1434 1433 1433 1432 1431 1430 1429 1429 1428 1427 1426 1425 1425 1424 1424 1423 1423 1422 1422 1423 1422 1421 1420 1418 1417 1416
1478 1473 1467 1461 1454 1448 1443 1440 1436 1433 1430 1427 1425 1425 1425 1425 1426 1426 1426 1426 1427 1427 1426 1425 1425 1425 1424 1424 1423 1422 1422 1422 1421 1420 1419 1419 1419 1419 1419 1417 1416 1415 1414
1470 1464 1460 1453 1447 1442 1437 1432 1428 1425 1421 1419 1417 1416 1415 1415 1416 1416 1418 1418 1419 1419 1420 1419 1419 1418 1418 1418 1419 1420 1419 1419 1418 1418 1418 1416 1414 1412 1413 1413 1412 1411 1409
1463 1457 1452 1446 1439 1434 1430 1425 1420 1416 1414 1413 1410 1407 1405 1404 1405 1408 1409 1410 1410 1411 1411 1413 1414 1412 1412 1412 1412 1414 1414 1413 1412 1412 1411 1411 1410 1409 1406 1407 1408 1406 1405
1454 1449 1444 1439 1433 1429 1424 1418 1413 1408 1406 1403 1400 1399 1397 1397 1396 1397 1399 1401 1402 1403 1405 1405 1406 1406 1407 1407 1408 1407 1409 1409 1409 1407 1407 1405 1405 1404 1403 1401 1401 1402 1400
1446 1441 1435 1430 1425 1421 1417 1410 1405 1402 1398 1395 1391 1390 1390 1388 1387 1388 1390 1391 1393 1394 1395 1397 1398 1399 1400 1401 1401 1401 1403 1404 1404 1403 1402 1401 1399 1399 1399 1398 1396 1396 1396
1442 1436 1431 1424 1419 1414 1410 1403 1396 1393 1389 1386 1385 1383 1381 1380 1380 1379 1379 1382 1384 1385 1387 1388 1388 1391 1392 1394 1395 1395 1396 1397 1399 1398 1397 1396 1395 1394 1394 1394 1392 1390 1391
1437 1431 1424 1418 1412 1408 1403 1398 1392 1387 1381 1377 1375 1373 1373 1374 1373 1373 1374 1374 1374 1376 1378 1379 1381 1383 1384 1386 1388 1388 1390 1392 1393 1393 1393 1392 1391 1391 1389 1390 1389 1386 1385
1433 1426 1420 1414 1407 1401 1396 1391 1386 1382 1377 1373 1369 1368 1366 1366 1366 1365 1366 1366 1367 1369 1371 1373 1375 1377 1377 1379 1380 1382 1384 1386 1388 1389 1389 1389 1387 1385 1385 1385 1385 1382 1381
1429 1422 1416 1410 1404 1398 1392 1386 1381 1375 1370 1366 1364 1363 1362 1360 1360 1359 1359 1359 1361 1364 1366 1367 1369 1371 1373 1374 1374 1376 1377 1379 1382 1383 1383 1384 1383 1382 1380 1381 1381 1378 1376